[[{"header":{"parameterUnit":"m.s-1","parameterCategory":1,"la1":30.2991,"la2":30.254,"lo1":-89.0895,"lo2":-89.0444,"dy":0.0017,"dx":0.0017,"nx":28,"ny":28,"refTime":"2024-06-18T21:00:00:Z","depth":0,"parameterNumber":2,"parameterNumberName":"U-component_of_WINDS"},"data":[0,0,0,0,0,0,0,0,0,0,0,0,0,0,0,0,0,0,0,0,0,0,0,0,0,0,0,0,0,0,0,0,0,0,0,0,0,0,0,0,0,0,0,0,0,0,0,0,0,0,0,0,0,0,0,0,0,0,-7.5986,-7.5988,0,-7.6133,-7.6134,-7.6136,-7.5916,-7.5908,-7.59,-7.5893,-7.6055,-7.6066,-7.6077,0,0,0,0,0,0,0,0,0,0,0,0,0,-7.5527,-7.5536,-7.5986,-7.5988,-7.599,-7.6132,-7.6134,-7.6136,-7.5917,-7.5908,-7.5898,-7.5889,-7.6051,-7.6064,-7.6078,0,0,0,0,0,0,0,0,0,0,0,0,0,-7.5706,-7.554,-7.5986,-7.5897,-7.5891,-7.6132,-7.6134,-7.6137,-7.5919,-7.5907,-7.5896,-7.5885,-7.6046,-7.6063,-7.608,-7.6418,0,0,-7.6133,-7.614,0,0,0,0,0,0,0,0,-7.5696,-7.5723,-7.5909,-7.5904,-7.5897,-7.5994,-7.6031,-7.6232,-7.5922,-7.5909,-7.5893,-7.5879,-7.6045,-7.6061,-7.6114,-7.6426,-7.6433,-7.6134,-7.6145,-7.6152,-7.6157,0,0,0,0,0,0,0,-7.5684,-7.5715,-7.6044,-7.5912,-7.5905,-7.5853,-7.5866,-7.6068,-7.604,-7.5909,-7.5893,-7.5913,-7.6039,-7.6098,-7.6117,-7.6435,-7.6134,-7.6149,-7.616,-7.6166,-7.7031,-7.7043,0,0,0,0,0,0,-7.568,-7.5706,-7.604,-7.6049,-7.5765,-7.5871,-7.5885,-7.5975,-7.6037,-7.6035,-7.5923,-7.5902,-7.6074,-7.6097,-7.6121,-7.6521,-7.6152,-7.6168,-7.6178,-7.7019,-7.7034,-7.7048,0,0,0,0,0,0,-7.5671,-7.5712,-7.6034,-7.5873,-7.591,-7.5891,-7.5994,-7.5984,-7.6042,-7.6047,-7.6042,-7.5988,-7.6066,-7.6097,-7.6345,-7.6524,-7.6176,-7.6192,-7.7004,-7.7024,-7.7041,-7.7324,0,0,0,0,0,0,-7.5659,-7.571,-7.5836,-7.5878,-7.592,-7.6253,-7.6004,-7.5995,-7.6071,-7.6046,-7.6107,-7.6106,-7.606,-7.6321,-7.6362,-7.6541,-7.6205,-7.6988,-7.7013,-7.7035,-7.7299,-7.735,-7.7394,0,0,0,0,0,-7.5644,-7.5913,-7.5844,-7.5885,-7.6076,-7.6264,-7.6288,-7.6225,-7.6086,-7.6214,-7.6218,-7.6104,-7.6497,-7.6348,-7.6393,-7.658,-7.6976,-7.7006,-7.7033,-7.7277,-7.734,-7.7393,0,0,0,0,0,0,-7.5898,-7.5917,-7.584,-7.613,-7.6197,-7.6226,-7.6385,-7.6294,-7.6404,-7.6376,-7.6297,-7.6313,-7.6579,-7.6604,-7.6437,-7.691,-7.6714,-7.6753,-7.6884,-7.6944,-7.6991,-7.698,-7.6219,0,0,0,0,0,-7.5987,-7.6134,-7.6144,-7.6399,-7.6435,-7.6406,-7.6485,-7.643,-7.6497,-7.6526,-7.6547,-7.6619,-7.6758,-7.6852,-7.6981,-7.7301,-7.7312,-7.7452,-7.7499,-7.7539,-7.7574,-7.7745,-7.7807,-7.7141,-7.7141,-7.714,0,0,-7.6174,-7.6202,-7.6301,-7.6451,-7.6495,-7.6652,-7.6431,-7.6607,-7.6723,-7.6553,-7.6787,-7.6806,-7.6882,-7.7167,-7.7294,-7.7196,-7.776,-7.7575,-7.7606,-7.762,-7.778,-7.7844,-7.79,-7.716,-7.7157,-7.7154,0,0,-7.6594,-7.663,-7.6846,-7.6894,-7.6963,-7.6941,-7.6994,-7.7037,-7.7041,-7.7274,-7.715,-7.7289,-7.7531,-7.759,-7.7652,-7.8094,-7.7994,-7.8138,-7.8389,-7.8557,-7.8609,-7.8655,-7.8814,-7.8871,-7.8173,-7.8174,-7.8174,0,-7.6819,-7.7046,-7.697,-7.7153,-7.7224,-7.7073,-7.7292,-7.7345,-7.7455,-7.7508,-7.7396,-7.7695,-7.7736,-7.8033,-7.814,-7.8195,-7.8254,-7.8131,-7.8607,-7.8653,-7.8695,-7.8845,-7.8905,-7.8191,-7.8189,-7.8187,-7.8185,0,-7.7319,-7.748,-7.7647,-7.7751,-7.784,-7.8042,-7.7998,-7.8099,-7.8037,-7.8028,-7.8268,-7.8311,-7.8445,-7.8511,-7.8455,-7.8802,-7.8738,-7.8619,-7.842,-7.8776,-7.8916,-7.8973,-7.8215,-7.8209,-7.8204,-7.82,0,0,-7.7905,-7.7963,-7.8026,-7.8071,-7.8136,-7.826,-7.8456,-7.8582,-7.8671,-7.8752,-7.8915,-7.9122,-7.9011,-7.9081,-7.903,-7.9177,-7.9525,-7.9039,-7.9039,-7.9128,-7.9911,-8.0001,-8.0069,-7.9459,-7.9469,-7.9478,-7.9904,0,-7.8324,-7.8656,-7.8592,-7.8919,-7.9066,-7.8925,-7.9095,-7.9156,-7.9153,-7.928,-7.9278,-7.9426,-7.9268,-7.9309,-7.9448,-7.9453,-7.9681,-7.9422,-7.9613,-7.9621,-7.9598,-8.0141,-8.0237,-8.0638,-7.9959,-7.9968,-7.9974,0,-7.8857,-7.8953,-7.9293,-7.9333,-7.9393,-7.9547,-7.9658,-7.9781,-7.9847,-7.9834,-7.9912,-7.9833,-8.003,-7.9829,-8.0101,-7.9926,-8.0,-8.0015,-8.0029,-8.0045,-7.982,-8.0173,-8.0764,-8.0824,-8.006,-8.0053,-8.0047,0,-7.925,-7.9465,-7.9696,-7.9739,-7.9792,-7.9903,-7.9931,-7.9985,-8.0066,-8.0165,-8.0216,-8.0339,-8.0407,-8.0505,-8.0462,-8.0319,-8.0744,-8.0538,-8.0741,-8.0743,-8.0838,-8.0832,-8.145,-8.0886,-8.0885,-8.0884,-8.0882,0,-7.9725,-7.9939,-7.9873,-8.0015,-8.0251,-8.0177,-8.0414,-8.0425,-8.0474,-8.0619,-8.0506,-8.0644,-8.0578,-8.0714,-8.0682,-8.0913,-8.0945,-8.0942,-8.0931,-8.0953,-8.0953,-8.1001,-8.0972,-8.09,-8.0896,-8.0893,-8.089,0,-8.0204,-8.0169,-8.0411,-8.0439,-8.0452,-8.0625,-8.065,-8.0785,-8.0772,-8.0956,-8.0996,-8.0978,-8.1131,-8.1097,-8.1267,-8.1245,-8.1535,-8.149,-8.1512,-8.1501,-8.1706,-8.1688,-8.2376,-8.2463,-8.1843,-8.1849,-8.1854,0,-8.0509,-8.067,-8.0715,-8.0801,-8.0836,-8.0977,-8.1057,-8.0992,-8.1081,-8.1167,-8.1293,-8.1434,-8.1544,-8.1796,-8.1801,-8.193,-8.1887,-8.212,-8.1906,-8.1922,-8.1891,-8.1882,-8.1899,-8.2163,-8.217,-8.2175,-8.218,0,-8.1055,-8.1029,-8.1147,-8.126,-8.1358,-8.1445,-8.1521,-8.1599,-8.1539,-8.1646,-8.1798,-8.1884,-8.2054,-8.2198,-8.2317,-8.2349,-8.2258,-8.2247,-8.2301,-8.2325,-8.2331,-8.233,-8.1628,-8.2232,-8.2227,-8.2223,-8.222,-8.2218,-8.1457,-8.1592,-8.1644,-8.178,-8.1829,-8.1903,-8.203,-8.2032,-8.2157,-8.2287,-8.2242,-8.2417,-8.248,-8.263,-8.2676,-8.2815,-8.2728,-8.2806,-8.2826,-8.2847,-8.2872,-8.2308,-8.2836,-8.2835,-8.2833,-8.2832,-8.2831,0,-8.1996,-8.2022,-8.2147,-8.2255,-8.2363,-8.2261,-8.2341,-8.2439,-8.2592,-8.2657,-8.2766,-8.2943,-8.3081,-8.3096,-8.3227,-8.3335,-8.3296,-8.3372,-8.3364,-8.3373,-8.2942,-8.2882,-8.3401,-8.3401,-8.3401,-8.3401,-8.3401,-8.3401,-8.229,-8.2513,-8.2494,-8.2742,-8.2767,-8.2934,-8.2988,-8.3057,-8.3107,-8.3308,-8.342,-8.3427,-8.3473,-8.3606,-8.373,-8.3731,-8.3785,-8.3878,-8.3863,-8.346,-8.3403,-8.3349,-8.3292,-8.389,-8.3891,-8.4283,-8.4286,-8.4289]},{"header":{"parameterUnit":"m.s-1","parameterCategory":1,"la1":30.2991,"la2":30.254,"lo1":-89.0895,"lo2":-89.0444,"dy":0.0017,"dx":0.0017,"nx":28,"ny":28,"refTime":"2024-06-18T21:00:00:Z","depth":0,"parameterNumber":3,"parameterNumberName":"V-component_of_WINDS"},"data":[0,0,0,0,0,0,0,0,0,0,0,0,0,0,0,0,0,0,0,0,0,0,0,0,0,0,0,0,0,0,0,0,0,0,0,0,0,0,0,0,0,0,0,0,0,0,0,0,0,0,0,0,0,0,0,0,0,0,-0.4507,-0.4506,0,-0.4404,-0.4403,-0.4402,-0.4406,-0.4408,-0.4409,-0.4411,-0.4295,-0.4291,-0.4286,0,0,0,0,0,0,0,0,0,0,0,0,0,-0.4696,-0.4693,-0.4507,-0.4506,-0.4504,-0.4404,-0.4403,-0.4401,-0.4406,-0.4408,-0.441,-0.4412,-0.4297,-0.4291,-0.4286,0,0,0,0,0,0,0,0,0,0,0,0,0,-0.4606,-0.4692,-0.4507,-0.4495,-0.4493,-0.4404,-0.4403,-0.4401,-0.4406,-0.4408,-0.441,-0.4412,-0.4298,-0.4292,-0.4285,-0.4199,0,0,-0.4265,-0.4262,0,0,0,0,0,0,0,0,-0.4611,-0.4599,-0.4498,-0.4496,-0.4493,-0.4421,-0.4427,-0.4333,-0.4405,-0.4438,-0.4411,-0.4413,-0.4334,-0.4325,-0.43,-0.4194,-0.4189,-0.4264,-0.426,-0.4257,-0.4255,0,0,0,0,0,0,0,-0.4617,-0.4603,-0.4466,-0.4496,-0.4493,-0.4491,-0.4481,-0.4409,-0.4375,-0.4436,-0.4436,-0.4424,-0.4333,-0.4307,-0.4298,-0.4187,-0.4264,-0.4258,-0.4254,-0.4252,-0.4,-0.3997,0,0,0,0,0,0,-0.4628,-0.4608,-0.4469,-0.4463,-0.4559,-0.4486,-0.4474,-0.4441,-0.4376,-0.4368,-0.4422,-0.4425,-0.4317,-0.4305,-0.4294,-0.4186,-0.4257,-0.4251,-0.4247,-0.4003,-0.3999,-0.3997,0,0,0,0,0,0,-0.4632,-0.4615,-0.4473,-0.4536,-0.4517,-0.448,-0.4443,-0.4438,-0.4412,-0.4366,-0.4359,-0.4402,-0.4318,-0.4303,-0.4222,-0.4182,-0.4248,-0.4242,-0.4006,-0.4002,-0.3998,-0.3971,0,0,0,0,0,0,-0.4637,-0.4617,-0.4586,-0.4535,-0.4514,-0.4407,-0.4441,-0.4435,-0.4401,-0.4403,-0.4345,-0.4337,-0.4319,-0.4232,-0.4216,-0.4174,-0.4237,-0.4009,-0.4004,-0.3999,-0.3975,-0.3966,-0.3959,0,0,0,0,0,-0.4644,-0.4581,-0.4585,-0.4568,-0.4476,-0.4405,-0.4392,-0.4376,-0.4398,-0.4365,-0.4335,-0.4339,-0.419,-0.4224,-0.4205,-0.4161,-0.4012,-0.4005,-0.4,-0.3979,-0.3968,-0.3959,0,0,0,0,0,0,-0.4625,-0.4574,-0.4578,-0.4497,-0.4456,-0.4406,-0.4364,-0.4366,-0.4314,-0.4318,-0.4296,-0.4283,-0.4201,-0.4173,-0.4213,-0.4072,-0.4103,-0.4093,-0.4093,-0.4083,-0.4075,-0.4082,-0.4231,0,0,0,0,0,-0.4613,-0.4563,-0.4519,-0.4452,-0.4432,-0.4402,-0.437,-0.4361,-0.4315,-0.4297,-0.4261,-0.4214,-0.4156,-0.4118,-0.4062,-0.3971,-0.3956,-0.3931,-0.3923,-0.3917,-0.3907,-0.3853,-0.384,-0.3977,-0.3977,-0.3977,0,0,-0.4584,-0.455,-0.452,-0.4448,-0.4415,-0.4359,-0.4387,-0.4328,-0.4285,-0.4287,-0.4209,-0.4181,-0.4126,-0.4039,-0.3999,-0.4013,-0.3866,-0.3909,-0.3904,-0.3898,-0.3846,-0.3833,-0.3821,-0.3973,-0.3974,-0.3974,0,0,-0.4505,-0.4476,-0.4415,-0.4382,-0.4332,-0.4312,-0.4298,-0.4247,-0.4229,-0.4152,-0.4151,-0.4098,-0.4,-0.396,-0.3927,-0.383,-0.383,-0.3813,-0.3769,-0.3717,-0.3706,-0.3696,-0.3658,-0.3645,-0.3804,-0.3804,-0.3804,0,-0.4475,-0.4396,-0.4383,-0.4324,-0.429,-0.4293,-0.4229,-0.4195,-0.4128,-0.4103,-0.4121,-0.3996,-0.396,-0.3862,-0.3839,-0.3813,-0.3792,-0.3818,-0.3709,-0.3699,-0.369,-0.3653,-0.364,-0.3802,-0.3802,-0.3802,-0.3803,0,-0.4359,-0.4304,-0.4261,-0.4199,-0.4161,-0.4099,-0.4074,-0.4036,-0.403,-0.4007,-0.3925,-0.3882,-0.3816,-0.3792,-0.3785,-0.3692,-0.3702,-0.3715,-0.3745,-0.3675,-0.364,-0.3626,-0.3799,-0.38,-0.38,-0.3801,0,0,-0.4264,-0.4197,-0.4181,-0.4152,-0.4096,-0.4051,-0.3988,-0.3927,-0.3893,-0.3846,-0.379,-0.3706,-0.3717,-0.368,-0.3667,-0.3622,-0.3544,-0.3639,-0.3638,-0.362,-0.3434,-0.3423,-0.3407,-0.3544,-0.3542,-0.354,-0.3438,0,-0.4176,-0.4069,-0.4055,-0.3957,-0.3903,-0.3904,-0.3848,-0.3806,-0.3782,-0.373,-0.3702,-0.3642,-0.3664,-0.364,-0.3595,-0.3563,-0.3505,-0.357,-0.3487,-0.3484,-0.3499,-0.339,-0.3378,-0.3284,-0.3424,-0.3422,-0.342,0,-0.406,-0.4012,-0.391,-0.386,-0.3837,-0.3788,-0.3729,-0.3681,-0.3631,-0.3617,-0.3575,-0.3568,-0.3497,-0.3533,-0.3434,-0.3478,-0.3443,-0.3421,-0.3417,-0.3406,-0.3446,-0.3373,-0.3254,-0.3238,-0.3399,-0.3401,-0.3403,0,-0.3996,-0.3907,-0.3834,-0.3809,-0.375,-0.3714,-0.3687,-0.3641,-0.3604,-0.3551,-0.3526,-0.3465,-0.3431,-0.3382,-0.3356,-0.3385,-0.3257,-0.3291,-0.324,-0.324,-0.3211,-0.3212,-0.3081,-0.3193,-0.3193,-0.3194,-0.3194,0,-0.3898,-0.3834,-0.3804,-0.3759,-0.3686,-0.367,-0.3597,-0.357,-0.3528,-0.3474,-0.3471,-0.3419,-0.3391,-0.3334,-0.3314,-0.3232,-0.3218,-0.3201,-0.3195,-0.3199,-0.3201,-0.3174,-0.3179,-0.319,-0.3191,-0.3191,-0.3192,0,-0.3814,-0.3792,-0.3712,-0.3663,-0.3649,-0.3597,-0.3553,-0.3506,-0.3484,-0.3415,-0.3398,-0.336,-0.3293,-0.3264,-0.318,-0.3166,-0.3072,-0.3073,-0.309,-0.3087,-0.3036,-0.304,-0.2881,-0.2857,-0.2988,-0.2987,-0.2986,0,-0.3752,-0.3703,-0.3649,-0.3615,-0.3587,-0.3532,-0.3494,-0.3475,-0.3436,-0.3375,-0.3334,-0.3268,-0.3214,-0.3105,-0.3067,-0.3003,-0.3,-0.2949,-0.299,-0.2994,-0.2995,-0.2997,-0.299,-0.294,-0.2939,-0.2938,-0.2937,0,-0.3642,-0.3633,-0.3582,-0.3525,-0.3482,-0.3436,-0.3391,-0.3362,-0.3334,-0.329,-0.3223,-0.3181,-0.3096,-0.3028,-0.2961,-0.2929,-0.2926,-0.2925,-0.2908,-0.291,-0.2921,-0.2911,-0.3066,-0.2928,-0.2929,-0.2929,-0.293,-0.293,-0.3564,-0.352,-0.3475,-0.3417,-0.3381,-0.3339,-0.3292,-0.3264,-0.3209,-0.3141,-0.3132,-0.3059,-0.3007,-0.2917,-0.2882,-0.2822,-0.2834,-0.2812,-0.2805,-0.2799,-0.2794,-0.2933,-0.281,-0.281,-0.281,-0.281,-0.281,0,-0.3451,-0.3422,-0.3369,-0.3307,-0.326,-0.3267,-0.3217,-0.3176,-0.3113,-0.3067,-0.3014,-0.2934,-0.2868,-0.2826,-0.2758,-0.2718,-0.2714,-0.27,-0.2701,-0.2693,-0.2789,-0.2808,-0.2704,-0.2704,-0.2704,-0.2704,-0.2704,-0.2704,-0.3386,-0.3311,-0.3297,-0.3202,-0.3173,-0.3104,-0.3074,-0.3033,-0.2996,-0.2909,-0.2856,-0.283,-0.2783,-0.2712,-0.265,-0.2639,-0.2612,-0.2597,-0.2585,-0.2675,-0.2686,-0.2697,-0.2715,-0.2592,-0.2592,-0.2494,-0.2493,-0.2492]}]]